Flag for Poland Weather past 2 weeks in Częstochowa, Poland

Now
68 °F

Clear.


Feels Like: 68 °F
Forecast: 51 / 74 °F
Wind: 8 mph from Northwest

Location: Katowice Airport

Current Time: Sep 2, 2015 at 3:14:07 AM

Latest Report: Sep 2, 2015 at 2:30 AM


Visibility: 10 mi

Pressure: 29.80 "Hg

Humidity: 69%

Dew point: 57 °F

Location of CzęstochowaLocation

Historic Weather in Częstochowa — Graph

°F

Częstochowa temperature yesterday

Maximum temperature yesterday: 93 °F (at 3:00 PM)
Minimum temperature yesterday: 68 °F (at 2:30 AM)
Average temperature yesterday: 82 °F

Past Weeks' High & Low Weather Summary

 TemperatureHumidityPressure
High95 °F (Aug 31, 4:00 PM)100% (Aug 26, 2:00 AM)30.30 "Hg (Aug 26, 2:00 AM)
Low46 °F (Aug 22, 6:00 AM)24% (Aug 31, 1:30 PM)29.74 "Hg (Sep 1, 5:00 PM)
Average69 °F58%30.07 "Hg
* Reported Aug 18 2:00 AM — Sep 2 2:00 AM, Częstochowa, Weather by CustomWeather, © 2015

Note: Actual official high and low records may vary slightly from our data, if they occured in-between our weather recording intervals... More about our weather records

Advertising

Częstochowa weather history for previous 24 hours

 ConditionsComfort  
Time TempWeatherWind HumidityBarometerVisibility
2:00 AM
Wed, Sep 2
68 °FClear.10 mph69%29.80 "Hg10 mi
1:30 AM63 °FClear.6 mph77%29.77 "Hg10 mi
1:00 AM70 °FClear.2 mph64%29.77 "Hg10 mi
11:30 PM
Tue, Sep 1
73 °FClear.6 mph57%29.77 "Hg10 mi
11:00 PM77 °FPassing clouds.3 mph51%29.77 "HgN/A
10:30 PM79 °FPassing clouds.3 mph48%29.77 "HgN/A
10:00 PM81 °FClear.12 mph45%29.77 "Hg10 mi
9:30 PM81 °FClear.10 mph45%29.77 "Hg10 mi
9:00 PM81 °FClear.7 mph45%29.77 "Hg10 mi
8:30 PM82 °FClear.8 mph42%29.74 "Hg10 mi
8:00 PM84 °FSunny.6 mph40%29.74 "Hg10 mi
7:30 PM86 °FSunny.6 mph38%29.74 "Hg10 mi
7:00 PM88 °FSunny.7 mph35%29.74 "Hg10 mi
6:30 PM90 °FSunny.8 mph31%29.74 "Hg10 mi
6:00 PM91 °FSunny.10 mph30%29.74 "Hg10 mi
5:30 PM91 °FSunny.12 mph30%29.74 "Hg10 mi
5:00 PM91 °FSunny.13 mph32%29.74 "Hg10 mi
4:30 PM91 °FSunny.14 mph32%29.77 "Hg10 mi
4:00 PM93 °FPassing clouds.12 mph28%29.77 "HgN/A
3:30 PM93 °FPassing clouds.13 mph28%29.77 "HgN/A
3:00 PM93 °FPassing clouds.13 mph28%29.77 "HgN/A
2:30 PM91 °FSunny.13 mph28%29.77 "Hg10 mi
2:00 PM90 °FSunny.14 mph31%29.80 "Hg10 mi
1:30 PM91 °FSunny.14 mph30%29.80 "Hg10 mi
1:00 PM88 °FSunny.14 mph33%29.80 "Hg10 mi
12:30 PM88 °FSunny.15 mph31%29.80 "Hg10 mi
12:00 PM88 °FSunny.15 mph33%29.80 "Hg10 mi
11:30 AM86 °FPassing clouds.13 mph35%29.80 "HgN/A
11:00 AM86 °FSunny.16 mph35%29.80 "Hg10 mi
10:30 AM84 °FSunny.17 mph37%29.80 "Hg10 mi
10:00 AM82 °FSunny.15 mph40%29.80 "Hg10 mi
9:30 AM81 °FSunny.12 mph42%29.80 "Hg10 mi
9:00 AM79 °FPassing clouds.9 mph45%29.80 "HgN/A
8:30 AM77 °FSunny.8 mph47%29.83 "Hg10 mi
8:00 AM75 °FSunny.9 mph50%29.83 "Hg10 mi
7:30 AM73 °FPassing clouds.6 mph53%29.83 "HgN/A
7:00 AM72 °FSunny.8 mph57%29.83 "Hg10 mi
5:30 AM72 °FClear.8 mph57%29.83 "Hg10 mi
5:00 AM72 °FClear.8 mph57%29.86 "Hg10 mi
4:30 AM75 °FClear.12 mph50%29.86 "Hg10 mi
4:00 AM70 °FPassing clouds.7 mph60%29.86 "HgN/A
3:30 AM70 °FClear.7 mph64%29.86 "Hg10 mi
3:00 AM68 °FClear.2 mph69%29.86 "Hg10 mi
Weather by CustomWeather, © 2015

See weather overviewHow to use our weather pages